User: anonymous   Login
Location: Marsån
(66.4167°N, 22.2833°E)
Time: 00:28:50
(UTC+00:00)
Language:

MOS 1 Rocket - Orbit

View from above orbital plane
View from above orbital plane
View from above satellite
View from above satellite

Ground track
Ground track

The orbit data is extracted from the following two-line orbital elements,

1 17528U 87018B   24144.80371182  .00000981  00000-0  21701-3 0  9994
2 17528  97.4639 212.8613 0146539 276.5221  81.9313 14.52791894967196
Epoch (UTC): 23 May 2024 19:17:20
Eccentricity: 0.0146539
inclination: 97.4639°
perigee height: 612 km
apogee height: 820 km
right ascension of ascending node: 212.8613°
argument of perigee: 276.5221°
revolutions per day: 14.52791894
mean anomaly at epoch: 81.9313°
orbit number at epoch: 96719

The dashed part of the orbit path shows where the satellite is in the earth's shadow,  

DLR